Location: Unspecified
(0.0000°N, 0.0000°E)
Time: 11:38:13
(UTC+00:00)

Courier 1B - Pass Details

Date: 27 November 2019
Orbit: 963 x 1209 km, 28.3° (Epoch: 07 December)

Event Time Altitude Azimuth Distance (km) Brightness Sun altitude
Rises 08:31:15 0° 320° (NW) 3,756 10.1 37.7°
Reaches altitude 10° 08:34:31 10° 333° (NNW) 2,767 9.6 38.4°
Maximum altitude 08:39:50 25° 27° (NNE) 1,865 9.2 39.6°
Drops below altitude 10° 08:45:00 10° 80° (E) 2,692 10.6 40.7°
Sets 08:48:07 0° 93° (E) 3,632 11.2 41.4°
